Location: ????? ????
(37.9717°N, 23.4051°E)
Time: 13:44:05
(UTC+00:00)

SPOT 1/Viking Rocket - Pass Details

Date: 18 April 2024
Orbit: 774 x 792 km, 98.3° (Epoch: 19 May)

Event Time Altitude Azimuth Distance (km) Brightness Sun altitude
Rises 17:36:04 0° 153° (SSE) 3,276 6.3 -6.6°
Reaches altitude 10° 17:38:25 10° 148° (SSE) 2,352 5.6 -7.0°
Maximum altitude 17:43:28 53° 73° (ENE) 968 3.8 -8.0°
Drops below altitude 10° 17:48:32 10° 357° (N) 2,365 6.4 -8.9°
Sets 17:50:54 0° 353° (N) 3,297 7.2 -9.3°
